Location: Agey
(47.2840°N, 4.7637°E)
Time: 00:51:41
(UTC+00:00)

Daily predictions for brighter satellites

Satellite Brightness Start Highest point End
(mag) Time Altitude Azimuth Time Altitude Azimuth Time Altitude Azimuth
USA 234 4.4 00:38:10 10° ENE 00:43:28 37° NNE 00:43:28 37° NNE
Cosmos 1980 Rocket 4.3 01:05:32 20° ENE 01:05:32 20° ENE 01:07:50 10° NE
Cosmos 2263 Rocket 4.2 00:59:22 10° N 01:03:49 24° NE 01:03:49 24° NE
Lacrosse 5 4.2 01:22:28 20° NE 01:22:28 20° NE 01:23:58 10° NE
Resurs 1-4 Rocket 3.9 01:24:37 10° NNE 01:26:56 27° NNE 01:26:56 27° NNE
SL-16 R/B 4.1 01:35:43 26° NNW 01:35:43 26° NNW 01:38:12 10° NNW
CZ-2D R/B 3.8 01:31:11 10° NNE 01:33:36 28° NNE 01:33:36 28° NNE
USA 267 4.4 01:44:24 10° ENE 01:49:37 31° ESE 01:49:37 31° ESE
ARIANE 5 R/B 4.3 01:46:24 10° NE 01:50:06 26° E 01:50:06 26° E
ATLAS 5 CENTAUR R/B 4.1 01:57:35 17° N 01:57:35 17° N 01:59:56 10° NNE
Cosmos 1934 Rocket 4.4 01:53:05 10° N 01:58:47 55° ENE 01:58:47 55° ENE
Gbstr 26 Del rocket 4.4 02:03:39 80° SE 02:03:39 80° SE 02:10:50 10° ESE
ATLAS 2AS CENTAUR R/B 4.1 01:56:50 10° NW 02:03:55 38° NNE 02:10:31 10° E
Cosmos 2278 4.3 02:10:19 53° NNE 02:10:19 53° NNE 02:14:38 10° NNE
ADEOS II 2.8 02:14:33 10° NNE 02:18:19 48° NNE 02:18:19 48° NNE
SL-4 R/B 4.1 02:21:54 25° E 02:21:54 25° E 02:24:24 10° ENE
SJ 16-02 4.1 02:15:57 10° NNW 02:16:15 12° NNW 02:16:15 12° NNW
IDEFIX/ARIANE 42P 3.6 02:16:50 10° NNE 02:21:49 40° E 02:22:24 39° ESE
USA 234 3.8 02:20:04 10° E 02:26:24 55° NNE 02:30:48 21° NW
Nadezhda 3 Rocket 4.3 02:27:57 54° NNW 02:27:57 54° NNW 02:32:57 10° N
Cosmos 2228 Rocket 4.2 02:33:14 42° NE 02:33:14 42° NE 02:36:25 10° NNE
Cosmos 1238 Rocket 3.8 02:26:56 10° N 02:33:17 84° NNW 02:33:17 84° NNW
Cosmos 1605 Rocket 4.3 02:27:17 10° N 02:33:42 67° E 02:37:19 27° SSE
USA 305 4.5 02:36:27 32° NNE 02:36:27 32° NNE 02:39:18 10° NE
CZ-4B R/B 4.3 02:30:56 10° N 02:34:35 44° NNW 02:34:35 44° NNW
Cosmos 1535 Rocket 4.4 02:29:45 10° N 02:36:12 84° W 02:36:27 81° SW
Cosmos 2360 Rocket 4.3 02:33:12 11° SE 02:37:03 21° E 02:41:08 10° NE
H-2A R/B 4.0 02:34:15 10° SE 02:38:07 30° ENE 02:42:02 10° N
USA 306 4.3 02:40:42 34° NNE 02:40:42 34° NNE 02:43:44 10° NE
Cosmos 1697 Rocket 3.7 02:40:57 33° NNW 02:40:57 33° NNW 02:45:11 10° NNE
ATLAS CENTAUR R/B 4.4 02:30:26 10° WNW 02:43:47 45° N 02:48:58 10° ENE
Meteor 1-4 Rocket 4.5 02:46:55 29° NE 02:46:55 29° NE 02:49:05 10° NNE
Cosmos 1980 Rocket 2.6 02:47:20 51° NW 02:47:20 51° NW 02:52:21 10° NNE
Cosmos 2263 Rocket 3.5 02:42:47 10° NNW 02:45:20 28° NW 02:45:20 28° NW
ASTEX 1 3.4 02:46:42 10° N 02:51:25 79° N 02:51:25 79° N
Cosmos 1844 Rocket 4.3 02:47:16 10° NNW 02:52:24 34° NE 02:57:32 10° ESE
Cosmos 2322 Rocket 2.8 02:54:21 37° SSE 02:56:15 52° ESE 03:01:47 10° NE
Cosmos 1898 Rocket 3.5 02:51:36 10° NNW 02:56:54 81° ENE 03:02:12 10° SSE
Cosmos 1666 3.6 02:55:32 10° N 02:59:07 48° ENE 02:59:07 48° ENE
Spot 4 Rocket 4.1 02:54:46 10° NNE 02:59:56 75° ESE 03:01:01 55° S
Meteor 1-11 Rocket 4.1 02:55:32 10° N 03:01:17 65° ENE 03:06:51 10° SSE
Lacrosse 5 2.9 03:01:39 32° NW 03:02:21 33° NNW 03:06:57 10° NE
Cosmos 921 Rocket 3.7 03:05:07 43° N 03:05:07 43° N 03:08:10 10° NNE
IRS-1C 4.2 03:00:04 10° N 03:05:14 56° WNW 03:05:14 56° WNW
Cosmos 1812 3.5 03:08:14 46° N 03:08:14 46° N 03:11:03 10° N
SL-16 R/B 2.2 03:06:39 49° S 03:08:14 77° ESE 03:13:56 10° NNE
Resurs 1-4 Rocket 4.0 03:05:48 10° NNW 03:08:01 16° NW 03:08:01 16° NW
USA 307 4.0 03:08:53 34° NNW 03:09:14 34° N 03:13:09 10° ENE
Meteor 1-27 Rocket 4.4 03:05:04 14° S 03:10:00 56° E 03:15:45 10° NNE
ERBS 3.8 03:12:22 32° NNE 03:12:22 32° NNE 03:14:33 10° NE
IRIDIUM 104 4.3 03:06:41 10° N 03:11:56 83° E 03:15:23 22° S
USA 308 4.0 03:12:08 33° NNW 03:12:38 34° N 03:16:34 10° ENE
Cosmos 1727 Rocket 4.1 03:09:26 19° S 03:14:06 76° E 03:20:26 10° NNE
Cosmos 1339 Rocket 4.4 03:12:47 47° SW 03:14:31 67° W 03:20:41 10° N
CZ-2D R/B 4.0 03:12:48 10° NNW 03:14:55 15° NW 03:14:55 15° NW
Cosmos 1937 Rocket 3.4 03:11:14 10° NNW 03:16:25 86° ENE 03:21:34 10° SSE
FALCON 9 DEB 3.7 03:20:10 57° ENE 03:20:10 57° ENE 03:23:00 10° ENE
CZ-4C R/B 3.2 03:20:02 68° NNE 03:20:02 68° NNE 03:23:14 10° N
IRIDIUM 114 4.2 03:15:50 10° N 03:21:05 83° W 03:24:29 22° S
Cosmos 841 Rocket 4.2 03:18:31 19° S 03:22:02 51° ESE 03:27:09 10° NNE
Cosmos 1536 3.1 03:20:14 10° N 03:24:18 69° ENE 03:28:21 10° SSE
Cosmos 1763 Rocket 3.4 03:25:15 44° SSW 03:26:59 80° WNW 03:32:19 10° NNE
CZ-2D R/B 3.7 03:23:16 10° N 03:27:24 53° WNW 03:27:24 53° WNW
USA 32 4.0 03:24:13 10° N 03:29:31 86° E 03:34:46 10° S
ARIANE 5 R/B 2.8 03:25:09 10° N 03:29:57 43° WNW 03:30:25 42° W
IRIDIUM 103 4.2 03:25:01 10° N 03:30:14 69° W 03:33:37 22° SSW
NOSS 3-4 (A) 3.8 03:24:45 10° NW 03:31:45 83° SW 03:39:31 10° SSE
NOSS 3-4 (C) 3.8 03:24:51 10° NW 03:31:52 83° SW 03:39:38 10° SE
USA 267 3.2 03:27:03 10° NE 03:33:38 86° NW 03:36:58 32° WSW
Cosmos 1707 Rocket 3.4 03:32:27 37° S 03:34:09 87° W 03:38:32 10° N
ADEOS Rocket 3.4 03:31:31 10° SSE 03:38:01 68° ENE 03:43:55 10° N
Meteor 1-5 Rocket 4.5 03:35:45 10° NNW 03:40:43 40° W 03:42:00 35° SW
CZ-4B R/B 3.2 03:37:56 10° SE 03:40:50 32° ENE 03:43:50 10° N
NOSS 3-3 (A) 4.4 03:38:58 32° W 03:41:25 47° NW 03:48:00 10° NE
NOSS 3-3 (C) 4.4 03:39:06 32° W 03:41:31 48° NW 03:48:06 10° NE
ERS-2 2.4 03:38:24 10° SSE 03:42:02 70° ENE 03:45:42 10° N
Cosmos 540 Rocket 3.6 03:38:54 19° SSW 03:42:38 76° ESE 03:47:49 10° NNE
ATLAS 5 CENTAUR R/B 4.3 03:40:55 10° NNW 03:43:20 13° N 03:45:53 10° NE
MSX 3.8 03:39:14 10° N 03:44:57 63° WNW 03:48:33 23° SW
Cosmos 44 Rocket 3.3 03:44:48 29° SSW 03:47:13 81° SE 03:52:07 10° NE
Cosmos 1733 Rocket 2.9 03:43:10 10° N 03:47:33 90° ENE 03:51:52 10° S
Cosmos 1743 3.5 03:46:27 10° N 03:50:12 52° ENE 03:53:55 10° SSE
PAYLOAD A 3.7 03:47:49 10° NNE 03:52:33 88° W 03:57:13 10° SSW
ATLAS 2AS CENTAUR R/B 2.7 03:48:02 10° NW 03:55:31 73° SW 04:02:22 10° SSE
Landsat 5 3.8 03:51:17 10° S 03:55:38 47° W 03:59:56 10° NNW
Cosmos 2173 Rocket 4.0 03:49:23 10° N 03:55:45 81° W 04:02:08 10° S
ADEOS 4.5 03:51:08 10° NNE 03:56:12 49° E 04:01:15 10° S
Cosmos 2333 Rocket 3.8 03:51:13 10° S 03:56:23 36° ESE 04:01:35 10° NE
BREEZE M DEB (TANK) 4.3 03:44:27 10° WNW 03:57:29 40° SW 04:01:49 10° SSE
CZ-2C R/B 3.3 03:54:38 10° N 03:58:11 37° WNW 03:58:54 34° W
ADEOS II 3.8 03:55:50 10° NNW 03:58:46 15° NW 03:59:15 15° WNW
SL-4 R/B 2.3 03:57:30 31° W 03:59:39 74° NNW 04:04:27 10° ENE
IDEFIX/ARIANE 42P 3.4 03:56:39 10° N 04:01:17 32° WNW 04:03:12 25° WSW
PSLV R/B 3.4 03:57:39 10° N 04:01:51 75° WNW 04:05:43 12° SSW
Cosmos 1570 Rocket 4.0 03:58:30 15° SSW 04:02:54 77° WNW 04:08:18 10° NNE
BREEZE-M DEB (TANK) 3.1 03:59:36 22° WSW 04:03:47 56° SSE 04:06:45 10° E
USA 276 2.0 04:03:18 39° W 04:04:19 69° SSW 04:07:31 10° ESE
Meteor 2-20 4.5 04:00:43 10° S 04:06:50 85° E 04:12:59 10° N
Cosmos 1862 Rocket 3.4 04:04:39 10° SSW 04:09:00 77° W 04:13:23 10° N
USA 234 3.2 04:02:54 10° SE 04:09:23 64° SW 04:15:53 10° WNW
BREEZE-M DEB (TANK) 3.3 04:08:00 27° W 04:09:46 74° N 04:18:19 10° ENE
CZ-4C R/B 3.3 04:06:10 10° NW 04:13:13 67° NE 04:21:25 10° SE
H-2A R/B 2.8 04:10:01 10° SSW 04:14:00 32° W 04:18:04 10° NNW
SAR-Lupe-4 3.7 04:11:27 10° SSE 04:15:01 75° ENE 04:18:37 10° N
ALOS 3.0 04:11:06 10° NNE 04:15:42 56° E 04:20:17 10° S
USA 305 4.2 04:12:37 13° NW 04:16:01 34° N 04:19:55 10° ENE
Cosmos 1689 Rocket 3.9 04:14:16 10° SE 04:17:00 35° ENE 04:19:47 10° N
PKM 4.2 04:14:43 17° WNW 04:17:15 45° SW 04:21:00 10° SSE
FENGYUN 3A 4.2 04:12:42 10° NNE 04:18:04 62° E 04:23:25 10° S
Cosmos 2360 Rocket 2.2 04:15:02 11° SW 04:20:29 68° WNW 04:26:09 10° NNE
USA 306 4.2 04:16:52 12° WNW 04:20:29 34° N 04:24:23 10° ENE
Meteor 1-4 Rocket 4.3 04:21:08 15° WNW 04:21:08 15° WNW 04:23:12 10° NNW
COSMOS 2455 4.2 04:15:29 10° NNW 04:21:11 41° NE 04:26:50 10° ESE
CZ-2C R/B 2.7 04:18:25 10° N 04:23:28 55° WNW 04:28:30 10° SSW
Cosmos 1975 3.5 04:19:43 10° N 04:23:41 58° ENE 04:27:37 10° SSE
Cosmos 372 Rocket 4.1 04:22:30 10° NNW 04:27:27 48° WSW 04:32:19 10° S
Cosmos 2016 Rocket 3.9 04:21:27 10° NNW 04:27:32 69° W 04:33:34 10° S
Meteor 1-18 Rocket 4.5 04:22:29 10° S 04:27:59 72° E 04:33:35 10° NNE
Cosmos 1980 Rocket 4.2 04:29:31 10° WNW 04:32:12 13° NW 04:34:54 10° N
Cosmos 1484 Rocket 2.9 04:28:58 10° NNE 04:33:00 88° ESE 04:37:01 10° SSW
SAR-Lupe-1 4.0 04:30:32 10° S 04:34:05 69° WSW 04:37:41 10° NNW
Cosmos 2061 Rocket 4.1 04:28:01 10° NNW 04:34:23 63° W 04:40:41 10° S
Cosmos 1844 Rocket 3.0 04:31:05 10° NW 04:36:27 46° WSW 04:41:47 10° S
Cosmos 2233 Rocket 4.2 04:31:05 10° N 04:37:16 79° E 04:43:25 10° SSE
Cosmos 1515 3.6 04:33:39 10° S 04:37:27 87° W 04:41:15 10° N
Cosmos 2322 Rocket 3.1 04:36:12 13° WSW 04:40:34 31° NW 04:45:37 10° NNE
Cosmos 2278 Rocket 3.3 04:35:57 10° NNW 04:41:26 47° NE 04:46:53 10° SE
Cosmos 1844 3.9 04:39:56 10° NW 04:45:15 47° WSW 04:50:32 10° S
Okean 1 3.4 04:41:32 10° SSW 04:45:29 54° WNW 04:49:29 10° N
Meteor 1-31 Rocket 2.7 04:42:04 10° NNE 04:45:54 82° WNW 04:49:46 10° SSW
Lacrosse 5 3.4 04:42:07 10° NW 04:46:28 28° N 04:50:50 10° ENE
COSMO-SKYMED 1 2.7 04:43:26 10° SSE 04:47:46 82° ENE 04:52:09 10° NNW
ERBS 4.4 04:45:55 10° NW 04:48:15 17° N 04:50:35 10° NE
USA 307 4.0 04:46:00 10° WNW 04:50:01 39° NNE 04:54:02 10° E
Cosmos 1725 Rocket 4.1 04:44:09 10° NNW 04:50:11 56° W 04:56:11 10° SSW
Meteor 2-9 Rocket 4.1 04:45:32 10° NNW 04:51:00 74° W 04:56:20 10° S
Cosmos 2298 Rocket 4.3 04:47:13 10° NNW 04:52:16 45° WSW 04:57:16 10° S
Cosmos 1437 Rocket 3.3 04:48:46 10° SW 04:52:20 37° WNW 04:55:58 10° N
deb Chang Zheng 4 3.8 04:48:43 10° N 04:52:53 50° WNW 04:56:59 10° SW
SL-16 R/B 3.5 04:48:33 10° W 04:53:00 23° NW 04:57:27 10° N
SJ-12 4.2 04:49:05 10° NNE 04:53:14 75° ESE 04:57:23 10° S
USA 308 4.0 04:49:23 10° NW 04:53:25 40° NNE 04:57:27 10° E
FALCON 9 DEB 4.3 04:53:41 10° WNW 04:56:51 33° N 05:00:01 10° ENE
Cosmos 1782 Rocket 3.6 04:56:57 10° NNW 05:01:25 72° W 05:05:51 10° S
Cosmos 1908 Rocket 4.1 04:58:25 10° NNW 05:02:35 39° W 05:06:45 10° SSW
Cosmos 1703 Rocket 3.6 05:01:06 10° SSW 05:05:22 55° WNW 05:09:40 10° N
Okean 1-7 3.0 05:01:46 10° SSW 05:05:57 59° WNW 05:10:10 10° N
